Change the Weather History Date:

Wednesday, November 5, 2014

  Actual Average Record
Temperature  
Mean Temperature 55 °F 52 °F  
Max Temperature 57 °F 62 °F 80 °F (1975)
Min Temperature 52 °F 42 °F 18 °F (1991)
Degree Days  
Heating Degree Days 10 13  
Month to date heating degree days 84 63  
Since 1 July heating degree days 345 339  
Cooling Degree Days 0 0  
Month to date cooling degree days 0 0  
Year to date cooling degree days 1536 1442  
Growing Degree Days 4 (Base 50)    
Moisture  
Dew Point 53 °F    
Average Humidity 90    
Maximum Humidity 100    
Minimum Humidity 80    
Precipitation  
Precipitation 0.10 in 0.14 in 3.58 in (1948)
Month to date precipitation 0.12 0.69  
Year to date precipitation 38.00 38.61  
Sea Level Pressure  
Sea Level Pressure 30.17 in    
Wind  
Wind Speed 2 mph (South)    
Max Wind Speed 9 mph    
Max Gust Speed 13 mph    
Visibility 6 miles    
Events Rain    
T = Trace of Precipitation, MM = Missing Value Source: NWS Daily Summary

Daily Weather History Graph

Daily Weather History Graph

Search for Another Location

Airport or City:

Trip Planner

Search our weather history database for the weather conditions in past years. The results will help you decide how hot, cold, wet, or windy it might be!

Date:

Astronomy

Nov. 05, 2014 Rise Set
Actual Time 7:12 AM EST 5:38 PM EST
Civil Twilight 6:45 AM EST 6:06 PM EST
Nautical Twilight 6:14 AM EST 6:37 PM EST
Astronomical Twilight 5:43 AM EST 7:08 PM EST
Moon 5:03 PM EST 5:38 AM EST
Length of Visible Light 11h 21m
Length of Day
10h 25m
Waxing Gibbous, 98% of the Moon is Illuminated
Nov 5
Waxing Gibbous
Nov 6
Full
Nov 14
Last Quarter
Nov 22
New
Nov 29
First Quarter

Hourly Weather History & Observations

Time (EST) Temp. Dew Point Humidity Pressure Visibility Wind Dir Wind Speed Gust Speed Precip Events Conditions
12:04 AM 55.0 °F 54.0 °F 96% 30.19 in 10.0 mi West 4.6 mph - N/A   Overcast
12:53 AM 55.0 °F 53.1 °F 93% 30.18 in 10.0 mi Calm Calm - 0.00 in Rain Light Rain
1:06 AM 55.0 °F 53.1 °F 93% 30.19 in 10.0 mi Calm Calm - 0.00 in Rain Light Rain
1:16 AM 55.0 °F 53.1 °F 93% 30.18 in 10.0 mi Calm Calm - 0.01 in   Overcast
1:43 AM 55.0 °F 54.0 °F 96% 30.18 in 8.0 mi Calm Calm - 0.01 in   Overcast
1:53 AM 55.0 °F 53.1 °F 93% 30.18 in 9.0 mi Calm Calm - 0.01 in   Overcast
2:32 AM 55.0 °F 53.1 °F 93% 30.19 in 7.0 mi NW 4.6 mph - N/A   Overcast
2:41 AM 55.0 °F 53.1 °F 93% 30.19 in 6.0 mi NW 4.6 mph - N/A   Overcast
2:53 AM 55.0 °F 53.1 °F 93% 30.19 in 6.0 mi NW 3.5 mph - N/A   Overcast
3:53 AM 54.0 °F 53.1 °F 97% 30.20 in 5.0 mi WNW 4.6 mph - 0.02 in Rain Light Rain
4:27 AM 54.0 °F 53.1 °F 97% 30.20 in 5.0 mi Calm Calm - 0.01 in Rain Light Rain
4:37 AM 54.0 °F 53.1 °F 97% 30.20 in 6.0 mi Calm Calm - 0.01 in Rain Light Rain
4:53 AM 54.0 °F 53.1 °F 97% 30.19 in 5.0 mi Calm Calm - 0.01 in Rain Light Rain
4:59 AM 54.0 °F 53.1 °F 97% 30.20 in 5.0 mi Calm Calm - 0.00 in Rain Light Rain
5:06 AM 54.0 °F 52.0 °F 93% 30.20 in 7.0 mi NNE 3.5 mph - 0.00 in   Overcast
5:17 AM 54.0 °F 53.1 °F 97% 30.20 in 7.0 mi North 5.8 mph - 0.00 in   Overcast
5:53 AM 54.0 °F 51.1 °F 90% 30.21 in 10.0 mi North 4.6 mph - 0.00 in   Overcast
6:15 AM 53.1 °F 51.1 °F 93% 30.21 in 9.0 mi Variable 3.5 mph - N/A   Overcast
6:53 AM 52.0 °F 50.0 °F 93% 30.22 in 9.0 mi North 4.6 mph - N/A   Overcast
7:01 AM 52.0 °F 50.0 °F 93% 30.22 in 9.0 mi North 4.6 mph - N/A   Overcast
7:27 AM 52.0 °F 50.0 °F 93% 30.22 in 8.0 mi Calm Calm - N/A   Overcast
7:41 AM 52.0 °F 50.0 °F 93% 30.22 in 7.0 mi Calm Calm - N/A   Overcast
7:53 AM 52.0 °F 50.0 °F 93% 30.23 in 6.0 mi NNW 3.5 mph - N/A   Mostly Cloudy
8:00 AM 52.0 °F 50.0 °F 93% 30.23 in 5.0 mi NNW 4.6 mph - N/A   Mostly Cloudy
8:53 AM 52.0 °F 50.0 °F 93% 30.24 in 6.0 mi Calm Calm - N/A   Overcast
9:53 AM 53.1 °F 50.0 °F 89% 30.24 in 6.0 mi Calm Calm - N/A   Overcast
10:50 AM 55.4 °F 51.8 °F 88% 30.23 in 7.0 mi Calm Calm - N/A   Overcast
10:53 AM 55.0 °F 51.1 °F 86% 30.23 in 7.0 mi Calm Calm - N/A   Overcast
11:53 AM 55.0 °F 51.1 °F 86% 30.21 in 10.0 mi ESE 4.6 mph - N/A   Overcast
12:04 PM 55.9 °F 51.1 °F 84% 30.21 in 10.0 mi Variable 3.5 mph - N/A   Overcast
12:53 PM 55.9 °F 51.1 °F 84% 30.19 in 10.0 mi ENE 3.5 mph - N/A   Overcast
1:53 PM 57.0 °F 52.0 °F 83% 30.17 in 10.0 mi Calm Calm - N/A   Overcast
2:53 PM 55.9 °F 52.0 °F 87% 30.16 in 10.0 mi Calm Calm - N/A   Overcast
3:53 PM 55.9 °F 52.0 °F 87% 30.14 in 10.0 mi SE 3.5 mph - N/A   Overcast
4:15 PM 55.9 °F 52.0 °F 87% 30.14 in 9.0 mi Variable 4.6 mph - N/A   Overcast
4:42 PM 55.9 °F 52.0 °F 87% 30.14 in 9.0 mi SE 3.5 mph - N/A   Overcast
4:53 PM 55.9 °F 53.1 °F 90% 30.14 in 8.0 mi SE 3.5 mph - N/A   Overcast
5:53 PM 55.9 °F 53.1 °F 90% 30.14 in 10.0 mi South 3.5 mph - N/A   Overcast
6:46 PM 55.0 °F 54.0 °F 96% 30.14 in 2.5 mi South 3.5 mph - 0.04 in Rain Light Rain
6:48 PM 55.4 °F 53.6 °F 94% 30.14 in 3.0 mi South 3.5 mph - 0.04 in Rain Light Rain
6:53 PM 55.0 °F 54.0 °F 96% 30.14 in 3.0 mi Calm Calm - 0.04 in Rain Light Rain
7:53 PM 54.0 °F 53.1 °F 97% 30.12 in 3.0 mi SE 3.5 mph - 0.01 in Rain Light Rain
8:00 PM 54.0 °F 53.1 °F 97% 30.12 in 3.0 mi SSE 3.5 mph - 0.01 in Rain Light Rain
8:10 PM 54.0 °F 54.0 °F 100% 30.11 in 3.0 mi Calm Calm - 0.01 in Rain Light Rain
8:25 PM 55.0 °F 54.0 °F 96% 30.11 in 2.5 mi South 3.5 mph - 0.01 in   Overcast
8:53 PM 54.0 °F 54.0 °F 100% 30.10 in 2.0 mi Calm Calm - 0.01 in   Overcast
9:39 PM 55.0 °F 54.0 °F 96% 30.10 in 3.0 mi Calm Calm - N/A   Overcast
9:53 PM 55.0 °F 54.0 °F 96% 30.09 in 3.0 mi SSE 3.5 mph - N/A   Overcast
10:39 PM 54.0 °F 54.0 °F 100% 30.08 in 2.5 mi SSW 3.5 mph - N/A   Overcast
10:53 PM 54.0 °F 54.0 °F 100% 30.08 in 2.0 mi South 3.5 mph - N/A   Overcast
11:03 PM 54.0 °F 54.0 °F 100% 30.07 in 1.5 mi South 5.8 mph - N/A   Overcast
11:33 PM 54.0 °F 53.1 °F 97% 30.06 in 2.5 mi SSW 4.6 mph - N/A   Overcast
11:42 PM 54.0 °F 54.0 °F 100% 30.05 in 3.0 mi South 5.8 mph - N/A   Overcast
11:53 PM 54.0 °F 54.0 °F 100% 30.05 in 3.0 mi SSW 4.6 mph - N/A   Overcast